Location: Le Domaine
(47.0333°N, 76.5361°W)
Time: 12:25:53
(UTC-05:00)

S-56A Canister/Altair - Pass Details

Date: 24 November 2019
Orbit: 633 x 2499 km, 38.9° (Epoch: 06 December)

Event Time Altitude Azimuth Distance (km) Brightness Sun altitude
Rises 13:26:56 0° 204° (SSW) 6,081 13.8 19.1°
Reaches altitude 10° 13:32:10 10° 193° (SSW) 4,914 13.7 18.8°
Maximum altitude 13:41:53 24° 147° (SSE) 3,410 11.4 18.0°
Drops below altitude 10° 13:49:39 10° 99° (E) 3,868 11.0 17.4°
Sets 13:53:08 0° 86° (E) 4,565 11.2 17.1°
